Location: Baia Mare
(47.6567°N, 23.5850°E)
Time: 14:34:16
(UTC+03:00)

ISS - Pass Details

Date: 18 July 2019
Orbit: 409 x 418 km, 51.6° (Epoch: 21 July)

Event Time Altitude Azimuth Distance (km) Brightness Sun altitude
Rises 00:53:30 0° 271° (W) 2,349 0.2 -20.7°
Reaches altitude 10° 00:55:40 10° 278° (W) 1,485 -0.8 -20.7°
Maximum altitude 00:58:52 43° 352° (N) 593 -2.6 -20.8°
Drops below altitude 10° 01:02:04 10° 65° (ENE) 1,483 -0.8 -20.9°
Sets 01:04:13 0° 73° (ENE) 2,344 0.2 -20.9°
